This demonstration page uses our WeatherBlox Daily Observations layout. Learn more.

Left ArrowRight Arrow

41.86663, -103.66717

Hourly Observations for October 10, 2018

Temp ( °F °C ) Dew Point ( °F °C ) Humidity (%) Winds ( mph kmh ) Pressure ( in mb ) Visibility ( mi km ) Precip ( " mm )
12:39 am 00:39 Cloudy 35 1.7 32 0 89 89 WNW 6 9 30.09 1019 10 16 0.00 0.00
12:53 am 00:53 Cloudy 35 1.7 31 -0.6 85 85 N 7 11 30.04 1017 10 16 0.00 0.00
1:53 am 01:53 Cloudy 35 1.7 31 -0.6 85 85 NNW 8 13 30.05 1018 10 16 0.00 0.00
2:53 am 02:53 Cloudy 34 1.1 30 -1.1 85 85 NNW 6 9 30.05 1018 10 16 0.00 0.00
3:42 am 03:42 Cloudy 34 1 30 -1 87 87 N 6 9 30.09 1019 10 16 0.00 0.00
3:53 am 03:53 Cloudy 34 1.1 30 -1.1 85 85 NNW 5 7 30.05 1018 10 16 0.00 0.00
4:21 am 04:21 Cloudy 34 1.1 30 -1.1 85 85 N 8 13 30.09 1019 10 16 0.00 0.00
4:53 am 04:53 Cloudy 33 0.6 29 -1.7 85 85 NNE 10 17 30.05 1018 10 16 0.00 0.00
5:53 am 05:53 Cloudy 32 0 28 -2.2 85 85 NNW 10 17 30.07 1018 10 16 0.00 0.00
6:07 am 06:07 Cloudy 32 0 28 -2.2 85 85 N 7 11 30.15 1021 10 16 0.00 0.00
6:36 am 06:36 Cloudy 32 0 28 -2 87 87 NNE 8 13 30.15 1021 10 16 0.00 0.00
6:53 am 06:53 Cloudy 32 0 28 -2.2 85 85 N 7 11 30.07 1018 10 16 0.00 0.00
7:53 am 07:53 Cloudy 32 0 28 -2.2 85 85 N 7 11 30.08 1019 10 16 0.00 0.00
8:53 am 08:53 Cloudy 33 0.6 28 -2.2 82 82 NNW 9 15 30.09 1019 10 16 0.00 0.00
9:53 am 09:53 Cloudy 35 1.7 29 -1.7 78 78 N 8 13 30.09 1019 10 16 0.00 0.00
10:53 am 10:53 Cloudy 36 2.2 29 -1.7 76 76 NNE 10 17 30.08 1019 10 16 0.00 0.00
11:53 am 11:53 Cloudy 39 3.9 29 -1.7 67 67 NE 12 19 30.08 1019 10 16 0.00 0.00
12:53 pm 12:53 Cloudy 39 3.9 29 -1.7 67 67 NNE 9 15 30.08 1019 10 16 0.00 0.00
1:53 pm 13:53 Cloudy with Light Snow 38 3.3 30 -1.1 73 73 NNE 8 13 30.08 1019 8 13 0.00 0.03
2:53 pm 14:53 Cloudy with Light Snow 37 2.8 31 -0.6 79 79 N 8 13 30.09 1019 8 13 0.00 0.03
3:53 pm 15:53 Cloudy 38 3.3 30 -1.1 73 73 NNE 6 9 30.11 1020 10 16 0.00 0.03
4:53 pm 16:53 Cloudy with Light Snow 37 2.8 31 -0.6 79 79 N 9 15 30.12 1020 3 5 0.00 0.03
5:00 pm 17:00 Cloudy with Light Snow 36 2 32 0 87 87 NNE 6 9 30.15 1021 2 3 0.00 0.00
5:19 pm 17:19 Cloudy with Light Snow 36 2.2 33 0.6 89 89 NNE 6 9 30.18 1022 4 6 0.00 0.03
5:38 pm 17:38 Cloudy 36 2.2 33 0.6 89 89 NNE 5 7 30.18 1022 9 14 0.00 0.03
5:53 pm 17:53 Cloudy 36 2.2 32 0 86 86 ENE 5 7 30.15 1021 10 16 0.00 0.03
6:14 pm 18:14 Cloudy with Light Snow 36 2 32 0 87 87 NNE 5 7 30.18 1022 4 6 0.00 0.00
6:24 pm 18:24 Cloudy with Light Snow 36 2 32 0 87 87 NE 3 6 30.18 1022 3 5 0.00 0.00
6:51 pm 18:51 Mostly Cloudy 34 1 32 0 93 93 undefined N/A 30.21 1023 9 14 0.00 0.03
6:53 pm 18:53 Partly Cloudy 33 0.6 32 0 96 96 undefined N/A 30.17 1022 9 14 0.00 0.03
7:53 pm 19:53 Cloudy 33 0.6 33 0.6 100 100 Calm 30.19 1022 10 16 0.00 0.00
8:53 pm 20:53 Cloudy 34 1.1 34 1.1 100 100 Calm 30.18 1022 10 16 0.00 0.00
9:53 pm 21:53 Cloudy 33 0.6 33 0.6 100 100 Calm 30.19 1023 10 16 0.00 0.00
10:53 pm 22:53 Cloudy 32 0 32 0 100 100 E 3 6 30.19 1022 10 16 0.00 0.00
11:53 pm 23:53 Mostly Cloudy 31 -0.6 31 -0.6 100 100 ESE 3 6 30.17 1022 10 16 0.00 0.00

Powered by AerisWeather